Location: Ecklingerode
(51.5036°N, 10.3122°E)
Time: 07:03:09
(UTC+00:00)

H-2A R/B - Pass Details

Date: 29 October 2020
Orbit: 577 x 656 km, 98.5° (Epoch: 01 December)

Event Time Altitude Azimuth Distance (km) Brightness Sun altitude
Rises 16:58:27 0° 11° (N) 2,852 5.3 -10.1°
Reaches altitude 10° 17:00:41 10° 6° (N) 1,935 4.4 -10.5°
Maximum altitude 17:04:43 50° 291° (WNW) 751 2.9 -11.1°
Drops below altitude 10° 17:08:41 10° 216° (SW) 1,893 5.2 -11.7°
Sets 17:10:51 0° 211° (SSW) 2,784 6.0 -12.0°
